Find OneWeb SL0067

NORAD ID: 45425 Int'l Des: 2020-020 Owner: ONEWEB Country: UK Constellation: oneweb operational
別名: ONEWEB-0067 spacetrack, celestrak
LEOCIRCULARPOLARONEWEB_TYPE

現在のビュー

3D地球を読み込み中...

About OneWeb SL0067

OneWeb SL0067 (NORAD 45425) is a oneweb constellation satellite launched Mar 21, 2020 by ONEWEB of UK. It operates in LEO, CIRCULAR, POLAR, ONEWEB_TYPE orbit with a mass of 148.00 kg.

次回通過

Passes for default location (London). Set your location on the main map for personalized predictions.

高度履歴

Loading altitude history...

軌道要素

1 45425U 20020B 26265.69086910 .00037661 00000-0 10534+0 0 9999
2 45425 87.8992 1.6297 0002739 82.0899 278.0540 13.11715124315514
Epoch: Sep 22, 2026 • Age: 13 hours

現在のステータス

高度 1235.4 km
遠地点 / 近地点 N/A
速度 7.24 km/s
衛星直下点 -46.04°S, 80.14°W
打ち上げ日 Mar 21, 2020
運用期間 6.5 years
タイプ internet

技術仕様

分類 Payload
質量 148.00 kg
乾燥質量 140.00 kg
長さ 1.30 m
直径 1.00 m
スパン 5.00 m
形状 ? Trapezoid+2 pan
製造者 ONEWUS
バスタイプ ARROW
フェーズステータス In Orbit
所有者/国 ONEWEB/UK

Most Searched